{"data":{"norad_id":53078,"intl_designator":"2022-077AM","name":"STARLINK-4322","alt_names":[],"object_type":"PAYLOAD","status":"ACTIVE","operator":null,"country":"US","launch_date":"2022-07-11","launch_site_code":"AFWTR","launch_vehicle":null,"mission":null,"orbit_class":"UNKNOWN","rcs_meters":null,"size_class":null,"mass_kg":null,"dimensions":null,"purposes":["comms"],"wikipedia_slug":null,"has_3d_model":false,"image_url":null,"decayed_at":null,"tle_current":{"epoch":"2026-09-19T22:13:03.283680Z","epoch_age_seconds":121934,"freshness":"FRESH","line1":"1 53078U 22077AM  26262.92573245 -.00001249  00000+0 -36401-4 0  9991","line2":"2 53078  97.2859  77.7083 0001831  90.2753 269.8700 15.33423031230200","mean_motion":15.33423031,"eccentricity":0.0001831,"inclination_deg":97.2859,"raan_deg":77.7083,"arg_perigee_deg":90.2753,"mean_anomaly_deg":269.87,"bstar":-3.6401e-5,"rev_number":23020,"period_min":93.907550029487,"perigee_km":464.35544973772,"apogee_km":466.8616293543,"semimajor_km":6843.745539546,"source":"CELESTRAK","updated_at":"2026-09-20T09:00:40.156852Z"}}}